User: anonymous   Login
Location: Albany
(42.6526°N, 73.7562°W)
Time: 14:57:46
(UTC+00:00)
Language:

NOAA 12 - Orbit

View from above orbital plane
View from above orbital plane
View from above satellite
View from above satellite

Ground track
Ground track

The orbit data is extracted from the following two-line orbital elements,

1 21263U 91032A   20020.90391771 +.00000002 +00000-0 +18663-4 0  9990
2 21263 098.5102 035.1518 0014260 034.3629 325.8471 14.25906881491529
Epoch (UTC): 20 January 2020 21:41:38
Eccentricity: 0.0014260
inclination: 98.5102°
perigee height: 795 km
apogee height: 815 km
right ascension of ascending node: 35.1518°
argument of perigee: 34.3629°
revolutions per day: 14.25906881
mean anomaly at epoch: 325.8471°
orbit number at epoch: 49152

The dashed part of the orbit path shows where the satellite is in the earth's shadow,  

DLR